Location: Sudbury
(46.5221°N, 80.9530°W)
Time: 18:20:57
(UTC-04:00)

ISS - Visible Passes

Search period start: 20 July 2019 00:00
Search period end: 30 July 2019 00:00
Orbit: 409 x 418 km, 51.6° (Epoch: 20 July)

Date Brightness Start Highest point End Pass type
(mag) Time Alt. Az. Time Alt. Az. Time Alt. Az.
20 Jul -2.1 00:03:19 10° WNW 00:06:25 34° N 00:09:31 10° ENE visible
20 Jul -2.4 01:40:26 10° WNW 01:43:35 39° NNE 01:46:03 15° E visible
20 Jul -2.2 03:17:07 10° WNW 03:18:35 23° WNW 03:18:35 23° WNW visible
20 Jul -2.4 23:13:48 10° W 23:17:00 40° NNW 23:20:10 10° ENE visible
21 Jul -2.1 00:51:03 10° WNW 00:54:10 34° N 00:56:14 17° ENE visible
21 Jul -1.7 02:27:47 10° WNW 02:28:59 20° WNW 02:28:59 20° WNW visible
21 Jul -2.8 22:24:18 10° W 22:27:34 50° NNW 22:30:51 10° ENE visible
22 Jul -2.0 00:01:39 10° WNW 00:04:42 32° N 00:07:44 10° ENE visible
22 Jul -2.3 01:38:28 10° WNW 01:40:32 33° NW 01:40:32 33° NW visible
22 Jul -2.0 23:12:09 10° WNW 23:15:14 33° N 23:18:18 10° ENE visible
23 Jul -2.8 00:49:08 10° WNW 00:52:22 46° NNE 00:52:22 46° NNE visible
23 Jul -2.1 22:22:37 10° WNW 22:25:45 36° N 22:28:52 10° ENE visible
23 Jul -2.4 23:59:46 10° WNW 00:02:56 37° NNE 00:04:19 25° ENE visible
24 Jul -1.2 01:36:28 10° WNW 01:37:07 15° WNW 01:37:07 15° WNW visible
24 Jul -2.1 23:10:21 10° WNW 23:13:27 33° N 23:16:22 11° ENE visible
25 Jul -2.4 00:47:06 10° WNW 00:49:10 35° WNW 00:49:10 35° WNW visible
25 Jul -2.0 22:20:52 10° WNW 22:23:56 32° N 22:27:00 10° ENE visible
25 Jul -3.3 23:57:45 10° WNW 00:01:02 56° NNE 00:01:15 54° NE visible
26 Jul -2.7 23:08:21 10° WNW 23:11:34 43° NNE 23:13:22 22° ENE visible
27 Jul -1.5 00:45:05 10° WNW 00:46:11 19° WNW 00:46:11 19° WNW visible
27 Jul -2.4 22:18:56 10° WNW 22:22:05 36° N 22:25:12 10° E visible
27 Jul -3.3 23:55:38 10° WNW 23:58:20 54° W 23:58:20 54° W visible
28 Jul -3.7 23:06:14 10° WNW 23:09:34 72° NNE 23:10:31 43° E visible
29 Jul -3.1 22:16:50 10° WNW 22:20:07 51° NNE 22:22:43 15° E visible
29 Jul -2.1 23:53:39 10° WNW 23:55:32 26° W 23:55:32 26° W visible
